Weather History for KGUY - May, 2013

Change the Weather History Date:

Thursday, May 2, 2013

  Actual Average Record
Temperature  
Mean Temperature 41 °F 60 °F  
Max Temperature 52 °F 75 °F - ()
Min Temperature 30 °F 46 °F - ()
Degree Days  
Heating Degree Days 24 6  
Month to date heating degree days 36 12  
Since 1 July heating degree days 4249 4365  
Cooling Degree Days 0 1  
Month to date cooling degree days 0 2  
Year to date cooling degree days 25 17  
Moisture  
Dew Point 26 °F    
Average Humidity 58    
Maximum Humidity 92    
Minimum Humidity 24    
Precipitation  
Precipitation 0.02 in 0.04 in - ()
Month to date precipitation 0.02 0.07  
Year to date precipitation 2.21 3.88  
Snow  
Snow 0.30 in - - ()
Month to date snowfall 0.3  
Since 1 July snowfall 22.3  
Snow Depth T in    
Sea Level Pressure  
Sea Level Pressure 30.53 in    
Wind  
Wind Speed 21 mph (North)    
Max Wind Speed 33 mph    
Max Gust Speed 41 mph    
Visibility 8 miles    
Events Snow    
T = Trace of Precipitation, MM = Missing Value Source: NWS Daily Summary

Daily Weather History Graph

Daily Weather History Graph

Search for Another Location

Airport or City:

Trip Planner

Search our weather history database for the weather conditions in past years. The results will help you decide how hot, cold, wet, or windy it might be!

Date:

Astronomy

May. 02, 2013 Rise Set
Actual Time 6:50 AM CDT 8:35 PM CDT
Civil Twilight 6:23 AM CDT 9:03 PM CDT
Nautical Twilight 5:49 AM CDT 9:37 PM CDT
Astronomical Twilight 5:13 AM CDT 10:13 PM CDT
Moon 2:27 AM CDT (5/2) 1:38 PM CDT (5/2)
Length of Visible Light 14h 40m
Length of Day
13h 44m
Waning Gibbous, 47% of the Moon is Illuminated
May 2
Waning Gibbous
May 9
New
May 17
First Quarter
May 24
Full
May 31
Last Quarter

Hourly Weather History & Observations

Time (CDT) Temp. Windchill Dew Point Humidity Pressure Visibility Wind Dir Wind Speed Gust Speed Precip Events Conditions
12:53 AM 34.0 °F 21.8 °F 30.0 °F 85% 30.47 in 10.0 mi North 23.0 mph 34.5 mph N/A   Overcast
1:53 AM 34.0 °F 21.5 °F 28.9 °F 82% 30.49 in 10.0 mi North 24.2 mph 39.1 mph N/A   Overcast
2:53 AM 34.0 °F 21.8 °F 28.9 °F 82% 30.49 in 10.0 mi North 23.0 mph 33.4 mph N/A   Overcast
3:12 AM 33.8 °F 21.3 °F 28.4 °F 81% 30.48 in 9.0 mi North 24.2 mph 32.2 mph 0.00 in Snow Light Snow
3:24 AM 33.8 °F 22.2 °F 30.2 °F 87% 30.49 in 3.0 mi North 20.7 mph 28.8 mph 0.00 in Snow Light Snow
3:31 AM 33.8 °F 22.2 °F 30.2 °F 87% 30.48 in 2.0 mi North 20.7 mph 28.8 mph 0.00 in Snow Light Snow
3:33 AM 33.8 °F 22.2 °F 30.2 °F 87% 30.48 in 1.8 mi North 20.7 mph 28.8 mph 0.00 in Snow Light Snow
3:53 AM 33.1 °F 21.2 °F 30.0 °F 89% 30.51 in 1.8 mi North 20.7 mph - 0.01 in Snow Light Snow
4:01 AM 33.8 °F 21.0 °F 30.2 °F 87% 30.49 in 2.0 mi North 25.3 mph 29.9 mph 0.00 in Snow Light Snow
4:12 AM 33.8 °F 21.6 °F 30.2 °F 87% 30.48 in 3.0 mi North 23.0 mph 31.1 mph 0.00 in Snow Light Snow
4:41 AM 33.8 °F 21.0 °F 30.2 °F 87% 30.50 in 2.5 mi North 25.3 mph 33.4 mph 0.00 in Snow Light Snow
4:50 AM 32.0 °F 18.6 °F 30.2 °F 93% 30.50 in 1.8 mi North 25.3 mph 33.4 mph 0.00 in Snow Light Snow
4:53 AM 32.0 °F 18.6 °F 30.0 °F 92% 30.53 in 1.5 mi North 25.3 mph 33.4 mph 0.00 in Snow Light Snow
5:13 AM 32.0 °F 19.5 °F 30.2 °F 93% 30.52 in 3.0 mi North 21.9 mph 27.6 mph 0.01 in Snow Light Snow
5:37 AM 33.8 °F 22.2 °F 30.2 °F 87% 30.51 in 7.0 mi North 20.7 mph 31.1 mph 0.01 in Snow Light Snow
5:53 AM 33.1 °F 20.3 °F 28.9 °F 85% 30.54 in 10.0 mi North 24.2 mph 32.2 mph 0.01 in   Overcast
5:59 AM 33.8 °F 21.3 °F 30.2 °F 87% 30.52 in 10.0 mi North 24.2 mph 33.4 mph N/A   Overcast
6:24 AM 33.8 °F 21.3 °F 28.4 °F 81% 30.53 in 10.0 mi North 24.2 mph 33.4 mph N/A   Overcast
6:53 AM 33.1 °F 20.1 °F 28.9 °F 85% 30.57 in 10.0 mi North 25.3 mph 34.5 mph N/A   Overcast
7:49 AM 33.8 °F 20.8 °F 28.4 °F 81% 30.56 in 10.0 mi North 26.5 mph 35.7 mph N/A   Overcast
7:53 AM 33.1 °F 19.6 °F 28.9 °F 85% 30.59 in 10.0 mi North 27.6 mph 35.7 mph N/A   Overcast
8:03 AM 33.8 °F 21.0 °F 28.4 °F 81% 30.57 in 10.0 mi North 25.3 mph 34.5 mph N/A   Overcast
8:53 AM 35.1 °F 22.0 °F 30.0 °F 82% 30.61 in 10.0 mi North 28.8 mph 34.5 mph N/A   Overcast
9:35 AM 37.4 °F 24.4 °F 30.2 °F 75% 30.60 in 10.0 mi North 33.4 mph 41.4 mph N/A   Overcast
9:53 AM 37.0 °F 24.9 °F 30.0 °F 76% 30.63 in 10.0 mi North 27.6 mph 36.8 mph N/A   Overcast
10:53 AM 39.0 °F 27.2 °F 27.0 °F 62% 30.63 in 10.0 mi North 29.9 mph 39.1 mph N/A   Overcast
11:32 AM 39.2 °F 27.8 °F 26.6 °F 61% 30.61 in 10.0 mi North 27.6 mph 40.3 mph N/A   Mostly Cloudy
11:53 AM 42.1 °F 31.5 °F 27.0 °F 55% 30.63 in 10.0 mi North 28.8 mph 38.0 mph N/A   Overcast
12:53 PM 43.0 °F 33.5 °F 25.0 °F 49% 30.62 in 10.0 mi North 24.2 mph 34.5 mph N/A   Overcast
1:53 PM 46.9 °F - 21.9 °F 37% 30.58 in 10.0 mi NNE 25.3 mph 33.4 mph N/A   Overcast
2:53 PM 50.0 °F - 21.0 °F 32% 30.56 in 10.0 mi North 26.5 mph 35.7 mph N/A   Mostly Cloudy
3:53 PM 51.1 °F - 19.9 °F 29% 30.54 in 10.0 mi North 25.3 mph 34.5 mph N/A   Mostly Cloudy
4:53 PM 51.1 °F - 18.0 °F 27% 30.52 in 10.0 mi NNE 21.9 mph 28.8 mph N/A   Scattered Clouds
5:53 PM 50.0 °F - 16.0 °F 26% 30.51 in 10.0 mi North 23.0 mph 32.2 mph N/A   Partly Cloudy
6:53 PM 51.1 °F - 15.1 °F 24% 30.50 in 10.0 mi North 19.6 mph 27.6 mph N/A   Clear
7:53 PM 48.0 °F - 16.0 °F 28% 30.50 in 10.0 mi North 16.1 mph - N/A   Clear
8:53 PM 42.1 °F 37.1 °F 17.1 °F 37% 30.51 in 10.0 mi North 8.1 mph - N/A   Clear
9:53 PM 39.9 °F 36.7 °F 17.1 °F 40% 30.51 in 10.0 mi North 4.6 mph - N/A   Clear
10:53 PM 39.0 °F 35.7 °F 18.0 °F 43% 30.50 in 10.0 mi NNW 4.6 mph - N/A   Clear
11:53 PM 35.1 °F 31.0 °F 21.0 °F 57% 30.49 in 10.0 mi West 4.6 mph - N/A   Clear